,,,PA_Meas_PMT16A,,PR_Meas_QMR101_102,,RH_Meas_QMH101,,SR_Meas_QMS101,,TA_Meas_QMH101,,GenWind,,GenWind,
date,time,status,PA,status,PR,status,RH,status,SR,status,TA,status,DirAvg,status,SpdAvg,
2012-08-25, 00:00:04,VALID,1010.71,VALID,0,VALID,104,VALID,0,VALID,24.4522,VALID,102,VALID,0.707031,
2012-08-25, 00:01:04,VALID,1010.67,VALID,0,VALID,104,VALID,0,VALID,24.4735,VALID,101,VALID,0.624609,
2012-08-25, 00:02:04,VALID,1010.68,VALID,0,VALID,103.947,VALID,0,VALID,24.4735,VALID,110,VALID,0.713672,
2012-08-25, 00:03:04,VALID,1010.68,VALID,0,VALID,103.909,VALID,0,VALID,24.4735,VALID,108,VALID,0.372656,
2012-08-25, 00:04:04,VALID,1010.69,VALID,0,VALID,103.97,VALID,0,VALID,24.493,VALID,104,VALID,0,
2012-08-25, 00:05:04,VALID,1010.69,VALID,0,VALID,103.985,VALID,0,VALID,24.4735,VALID,95,VALID,0.432813,
2012-08-25, 00:06:04,VALID,1010.7,VALID,0,VALID,104,VALID,0,VALID,24.493,VALID,88,VALID,0.423438,
2012-08-25, 00:07:04,VALID,1010.72,VALID,0,VALID,104,VALID,0,VALID,24.4717,VALID,80,VALID,0,
2012-08-25, 00:08:04,VALID,1010.69,VALID,0,VALID,104,VALID,0,VALID,24.4735,VALID,74,VALID,0.433203,
2012-08-25, 00:09:04,VALID,1010.69,VALID,0,VALID,104,VALID,0,VALID,24.4735,VALID,74,VALID,0.398047,
2012-08-25, 00:10:04,VALID,1010.69,VALID,0,VALID,104,VALID,0,VALID,24.4735,VALID,74,VALID,0,
2012-08-25, 00:11:04,VALID,1010.7,VALID,0,VALID,104,VALID,0,VALID,24.454,VALID,66,VALID,0.414844,
2012-08-25, 00:12:04,VALID,1010.69,VALID,0,VALID,104,VALID,0,VALID,24.454,VALID,66,VALID,0.0195313,
2012-08-25, 00:13:04,VALID,1010.71,VALID,0,VALID,104,VALID,0,VALID,24.4345,VALID,66,VALID,0,
2012-08-25, 00:14:04,VALID,1010.7,VALID,0,VALID,104,VALID,0,VALID,24.415,VALID,66,VALID,0,
2012-08-25, 00:15:04,VALID,1010.68,VALID,0,VALID,104,VALID,0,VALID,24.4345,VALID,66,VALID,0,
2012-08-25, 00:16:04,VALID,1010.66,VALID,0,VALID,104,VALID,0,VALID,24.415,VALID,65,VALID,0.0167969,
2012-08-25, 00:17:04,VALID,1010.66,VALID,0,VALID,104,VALID,0,VALID,24.3742,VALID,56,VALID,0.460156,
2012-08-25, 00:18:04,VALID,1010.66,VALID,0,VALID,104,VALID,0,VALID,24.3566,VALID,56,VALID,0.0539063,
2012-08-25, 00:19:04,VALID,1010.67,VALID,0,VALID,104,VALID,0,VALID,24.3566,VALID,56,VALID,0.171094,
2012-08-25, 00:20:04,VALID,1010.68,VALID,0,VALID,104,VALID,0,VALID,24.3371,VALID,56,VALID,0.294922,
2012-08-25, 00:21:04,VALID,1010.66,VALID,0,VALID,104,VALID,0,VALID,24.3176,VALID,56,VALID,0.15625,
2012-08-25, 00:22:04,VALID,1010.68,VALID,0,VALID,104,VALID,0.112112,VALID,24.2981,VALID,56,VALID,0,
2012-08-25, 00:23:04,VALID,1010.69,VALID,0,VALID,104,VALID,0,VALID,24.2981,VALID,56,VALID,0,
2012-08-25, 00:24:04,VALID,1010.72,VALID,0,VALID,104,VALID,0,VALID,24.2786,VALID,56,VALID,0,
2012-08-25, 00:25:04,VALID,1010.73,VALID,0,VALID,104,VALID,0,VALID,24.2786,VALID,56,VALID,0,
2012-08-25, 00:26:04,VALID,1010.7,VALID,0,VALID,104,VALID,0,VALID,24.2591,VALID,56,VALID,0.15625,
2012-08-25, 00:27:04,VALID,1010.69,VALID,0,VALID,104,VALID,0,VALID,24.2591,VALID,56,VALID,0,
2012-08-25, 00:28:04,VALID,1010.72,VALID,0,VALID,104,VALID,0,VALID,24.2591,VALID,56,VALID,0,
2012-08-25, 00:29:04,VALID,1010.69,VALID,0,VALID,104,VALID,0,VALID,24.2591,VALID,56,VALID,0,
2012-08-25, 00:30:04,VALID,1010.68,VALID,0,VALID,104,VALID,0,VALID,24.2591,VALID,56,VALID,0,
2012-08-25, 00:31:04,VALID,1010.66,VALID,0,VALID,104,VALID,0,VALID,24.2591,VALID,56,VALID,0,
2012-08-25, 00:32:04,VALID,1010.69,VALID,0,VALID,104,VALID,0,VALID,24.2183,VALID,56,VALID,0,
2012-08-25, 00:33:04,VALID,1010.7,VALID,0,VALID,104,VALID,0.112112,VALID,24.2396,VALID,56,VALID,0,
2012-08-25, 00:34:04,VALID,1010.7,VALID,0,VALID,104,VALID,0.112112,VALID,24.2396,VALID,56,VALID,0,
2012-08-25, 00:35:04,VALID,1010.71,VALID,0,VALID,104,VALID,0,VALID,24.2202,VALID,56,VALID,0,
2012-08-25, 00:36:04,VALID,1010.72,VALID,0,VALID,104,VALID,0,VALID,24.2202,VALID,56,VALID,0,
2012-08-25, 00:37:04,VALID,1010.74,VALID,0,VALID,104,VALID,0,VALID,24.2202,VALID,56,VALID,0,
2012-08-25, 00:38:04,VALID,1010.75,VALID,0,VALID,104,VALID,0.112112,VALID,24.2007,VALID,56,VALID,0,
2012-08-25, 00:39:04,VALID,1010.76,VALID,0,VALID,104,VALID,0,VALID,24.2202,VALID,56,VALID,0,
2012-08-25, 00:40:04,VALID,1010.73,VALID,0,VALID,104,VALID,0.112112,VALID,24.2202,VALID,56,VALID,0,
2012-08-25, 00:41:04,VALID,1010.71,VALID,0,VALID,104,VALID,0,VALID,24.2007,VALID,56,VALID,0,
2012-08-25, 00:42:04,VALID,1010.71,VALID,0,VALID,104,VALID,0,VALID,24.2007,VALID,56,VALID,0,
2012-08-25, 00:43:04,VALID,1010.68,VALID,0,VALID,104,VALID,0,VALID,24.1793,VALID,56,VALID,0,
2012-08-25, 00:44:04,VALID,1010.67,VALID,0,VALID,104,VALID,0.112112,VALID,24.1812,VALID,56,VALID,0,
2012-08-25, 00:45:04,VALID,1010.65,VALID,0,VALID,104,VALID,0,VALID,24.1793,VALID,56,VALID,0,
2012-08-25, 00:46:04,VALID,1010.64,VALID,0,VALID,104,VALID,0,VALID,24.1793,VALID,56,VALID,0,
2012-08-25, 00:47:04,VALID,1010.61,VALID,0,VALID,104,VALID,0,VALID,24.2007,VALID,56,VALID,0,
2012-08-25, 00:48:04,VALID,1010.61,VALID,0,VALID,104,VALID,0,VALID,24.1793,VALID,56,VALID,0,
2012-08-25, 00:49:04,VALID,1010.65,VALID,0,VALID,104,VALID,0,VALID,24.1812,VALID,56,VALID,0,
2012-08-25, 00:50:04,VALID,1010.6,VALID,0,VALID,104,VALID,0,VALID,24.1812,VALID,56,VALID,0,
2012-08-25, 00:51:04,VALID,1010.63,VALID,0,VALID,104,VALID,0,VALID,24.1404,VALID,56,VALID,0,
2012-08-25, 00:52:04,VALID,1010.61,VALID,0,VALID,104,VALID,0,VALID,24.1617,VALID,56,VALID,0,
2012-08-25, 00:53:04,VALID,1010.63,VALID,0,VALID,104,VALID,0.112112,VALID,24.1404,VALID,56,VALID,0,
2012-08-25, 00:54:04,VALID,1010.6,VALID,0,VALID,104,VALID,0,VALID,24.1422,VALID,56,VALID,0,
2012-08-25, 00:55:04,VALID,1010.61,VALID,0,VALID,104,VALID,0,VALID,24.1209,VALID,56,VALID,0,
2012-08-25, 00:56:04,VALID,1010.65,VALID,0,VALID,104,VALID,0,VALID,24.1227,VALID,56,VALID,0,
2012-08-25, 00:57:04,VALID,1010.63,VALID,0,VALID,104,VALID,0,VALID,24.1014,VALID,56,VALID,0,
2012-08-25, 00:58:04,VALID,1010.63,VALID,0,VALID,104,VALID,0.112112,VALID,24.1014,VALID,56,VALID,0,
2012-08-25, 00:59:04,VALID,1010.64,VALID,0,VALID,104,VALID,0.112112,VALID,24.1014,VALID,56,VALID,0,
2012-08-25, 01:00:04,VALID,1010.65,VALID,0,VALID,104,VALID,0.112112,VALID,24.1227,VALID,56,VALID,0,
2012-08-25, 01:01:04,VALID,1010.66,VALID,0,VALID,104,VALID,0,VALID,24.1227,VALID,56,VALID,0,
2012-08-25, 01:02:04,VALID,1010.67,VALID,0,VALID,104,VALID,0,VALID,24.1032,VALID,56,VALID,0,
2012-08-25, 01:03:04,VALID,1010.66,VALID,0,VALID,104,VALID,0,VALID,24.1032,VALID,56,VALID,0,
2012-08-25, 01:04:04,VALID,1010.67,VALID,0,VALID,104,VALID,0.112112,VALID,24.1227,VALID,56,VALID,0,
2012-08-25, 01:05:04,VALID,1010.7,VALID,0,VALID,104,VALID,0.112112,VALID,24.0819,VALID,56,VALID,0,
2012-08-25, 01:06:04,VALID,1010.68,VALID,0,VALID,104,VALID,0,VALID,24.0819,VALID,56,VALID,0,
2012-08-25, 01:07:04,VALID,1010.66,VALID,0,VALID,104,VALID,0.112112,VALID,24.1032,VALID,56,VALID,0,
2012-08-25, 01:08:04,VALID,1010.65,VALID,0,VALID,104,VALID,0.112112,VALID,24.1032,VALID,56,VALID,0,
2012-08-25, 01:09:04,VALID,1010.63,VALID,0,VALID,104,VALID,0.112112,VALID,24.1014,VALID,56,VALID,0,
2012-08-25, 01:10:04,VALID,1010.61,VALID,0,VALID,104,VALID,0,VALID,24.0819,VALID,56,VALID,0,
2012-08-25, 01:11:04,VALID,1010.61,VALID,0,VALID,104,VALID,0.112112,VALID,24.1032,VALID,56,VALID,0,
2012-08-25, 01:12:04,VALID,1010.6,VALID,0,VALID,104,VALID,0.112112,VALID,24.0819,VALID,56,VALID,0,
2012-08-25, 01:13:04,VALID,1010.63,VALID,0,VALID,104,VALID,0,VALID,24.1032,VALID,56,VALID,0,
2012-08-25, 01:14:04,VALID,1010.6,VALID,0,VALID,104,VALID,0,VALID,24.1032,VALID,56,VALID,0,
2012-08-25, 01:15:04,VALID,1010.63,VALID,0,VALID,104,VALID,0,VALID,24.1032,VALID,56,VALID,0,
2012-08-25, 01:16:04,VALID,1010.64,VALID,0,VALID,104,VALID,0,VALID,24.1227,VALID,56,VALID,0,
2012-08-25, 01:17:04,VALID,1010.65,VALID,0,VALID,104,VALID,0,VALID,24.1209,VALID,56,VALID,0,
2012-08-25, 01:18:04,VALID,1010.63,VALID,0,VALID,104,VALID,0,VALID,24.1227,VALID,56,VALID,0,
2012-08-25, 01:19:04,VALID,1010.66,VALID,0,VALID,104,VALID,0,VALID,24.1422,VALID,56,VALID,0,
2012-08-25, 01:20:04,VALID,1010.63,VALID,0,VALID,104,VALID,0,VALID,24.1227,VALID,56,VALID,0,
2012-08-25, 01:21:04,VALID,1010.61,VALID,0,VALID,104,VALID,0.112112,VALID,24.1209,VALID,56,VALID,0,
2012-08-25, 01:22:04,VALID,1010.62,VALID,0,VALID,104,VALID,0.112112,VALID,24.1209,VALID,56,VALID,0,
2012-08-25, 01:23:04,VALID,1010.6,VALID,0,VALID,104,VALID,0,VALID,24.1209,VALID,56,VALID,0,
2012-08-25, 01:24:04,VALID,1010.61,VALID,0,VALID,104,VALID,0,VALID,24.1209,VALID,56,VALID,0,
2012-08-25, 01:25:04,VALID,1010.58,VALID,0,VALID,104,VALID,0,VALID,24.1209,VALID,56,VALID,0,
2012-08-25, 01:26:04,VALID,1010.6,VALID,0,VALID,104,VALID,0,VALID,24.1422,VALID,56,VALID,0,
2012-08-25, 01:27:04,VALID,1010.59,VALID,0,VALID,104,VALID,0,VALID,24.1227,VALID,56,VALID,0,
2012-08-25, 01:28:04,VALID,1010.59,VALID,0,VALID,104,VALID,0,VALID,24.1227,VALID,56,VALID,0,
2012-08-25, 01:29:04,VALID,1010.57,VALID,0,VALID,104,VALID,0,VALID,24.1227,VALID,56,VALID,0,
2012-08-25, 01:30:04,VALID,1010.58,VALID,0,VALID,104,VALID,0,VALID,24.1227,VALID,56,VALID,0,
2012-08-25, 01:31:04,VALID,1010.55,VALID,0,VALID,104,VALID,0,VALID,24.0819,VALID,56,VALID,0,
2012-08-25, 01:32:04,VALID,1010.57,VALID,0,VALID,104,VALID,0.112112,VALID,24.1014,VALID,56,VALID,0,
2012-08-25, 01:33:05,VALID,1010.56,VALID,0,VALID,104,VALID,0,VALID,24.1032,VALID,30,VALID,0.292578,
2012-08-25, 01:34:04,VALID,1010.55,VALID,0,VALID,104,VALID,0,VALID,24.1032,VALID,26,VALID,0,
2012-08-25, 01:35:04,VALID,1010.54,VALID,0,VALID,104,VALID,0,VALID,24.1032,VALID,26,VALID,0,
2012-08-25, 01:36:05,VALID,1010.54,VALID,0,VALID,104,VALID,0,VALID,24.1032,VALID,26,VALID,0,
2012-08-25, 01:37:05,VALID,1010.54,VALID,0,VALID,104,VALID,0,VALID,24.1032,VALID,26,VALID,0,
2012-08-25, 01:38:05,VALID,1010.55,VALID,0,VALID,104,VALID,0,VALID,24.1032,VALID,26,VALID,0,
2012-08-25, 01:39:05,VALID,1010.54,VALID,0,VALID,104,VALID,0,VALID,24.0819,VALID,26,VALID,0,
2012-08-25, 01:40:05,VALID,1010.54,VALID,0,VALID,104,VALID,0,VALID,24.0837,VALID,26,VALID,0,
2012-08-25, 01:41:05,VALID,1010.54,VALID,0,VALID,104,VALID,0,VALID,24.0624,VALID,26,VALID,0,
2012-08-25, 01:42:05,VALID,1010.56,VALID,0,VALID,104,VALID,0,VALID,24.0624,VALID,26,VALID,0,
2012-08-25, 01:43:05,VALID,1010.53,VALID,0,VALID,104,VALID,0,VALID,24.0837,VALID,26,VALID,0,
2012-08-25, 01:44:05,VALID,1010.55,VALID,0,VALID,104,VALID,0,VALID,24.0643,VALID,26,VALID,0,
2012-08-25, 01:45:05,VALID,1010.55,VALID,0,VALID,104,VALID,0,VALID,24.0624,VALID,26,VALID,0,
2012-08-25, 01:46:05,VALID,1010.55,VALID,0,VALID,104,VALID,0,VALID,24.0643,VALID,26,VALID,0,
2012-08-25, 01:47:05,VALID,1010.55,VALID,0,VALID,104,VALID,0.112112,VALID,24.0624,VALID,26,VALID,0,
2012-08-25, 01:48:05,VALID,1010.56,VALID,0,VALID,104,VALID,0,VALID,24.0429,VALID,26,VALID,0,
2012-08-25, 01:49:05,VALID,1010.57,VALID,0,VALID,104,VALID,0,VALID,24.0837,VALID,26,VALID,0,
2012-08-25, 01:50:05,VALID,1010.6,VALID,0,VALID,104,VALID,0.112112,VALID,24.0837,VALID,26,VALID,0,
2012-08-25, 01:51:05,VALID,1010.54,VALID,0,VALID,104,VALID,0,VALID,24.1032,VALID,26,VALID,0,
2012-08-25, 01:52:05,VALID,1010.59,VALID,0,VALID,104,VALID,0.112112,VALID,24.0819,VALID,26,VALID,0,
2012-08-25, 01:53:05,VALID,1010.6,VALID,0,VALID,104,VALID,0,VALID,24.0837,VALID,26,VALID,0,
2012-08-25, 01:54:05,VALID,1010.57,VALID,0,VALID,104,VALID,0,VALID,24.1032,VALID,26,VALID,0,
2012-08-25, 01:55:05,VALID,1010.56,VALID,0,VALID,104,VALID,0,VALID,24.1032,VALID,26,VALID,0,
2012-08-25, 01:56:05,VALID,1010.57,VALID,0,VALID,104,VALID,0,VALID,24.0624,VALID,26,VALID,0,
2012-08-25, 01:57:05,VALID,1010.58,VALID,0,VALID,104,VALID,0,VALID,24.1032,VALID,26,VALID,0,
2012-08-25, 01:58:05,VALID,1010.59,VALID,0,VALID,104,VALID,0,VALID,24.0819,VALID,26,VALID,0,
2012-08-25, 01:59:05,VALID,1010.62,VALID,0,VALID,104,VALID,0,VALID,24.1032,VALID,26,VALID,0,
2012-08-25, 02:00:05,VALID,1010.61,VALID,0,VALID,104,VALID,0,VALID,24.1032,VALID,26,VALID,0,
2012-08-25, 02:01:05,VALID,1010.64,VALID,0,VALID,104,VALID,0.112112,VALID,24.1032,VALID,26,VALID,0,
2012-08-25, 02:02:05,VALID,1010.63,VALID,0,VALID,104,VALID,0.112112,VALID,24.1014,VALID,26,VALID,0,
2012-08-25, 02:03:05,VALID,1010.63,VALID,0,VALID,104,VALID,0,VALID,24.1227,VALID,26,VALID,0,
2012-08-25, 02:04:05,VALID,1010.61,VALID,0,VALID,104,VALID,0,VALID,24.1014,VALID,26,VALID,0,
2012-08-25, 02:05:05,VALID,1010.61,VALID,0,VALID,104,VALID,0,VALID,24.1014,VALID,26,VALID,0,
2012-08-25, 02:06:05,VALID,1010.62,VALID,0,VALID,104,VALID,0.112112,VALID,24.1209,VALID,26,VALID,0,
2012-08-25, 02:07:05,VALID,1010.61,VALID,0,VALID,104,VALID,0,VALID,24.1227,VALID,26,VALID,0,
2012-08-25, 02:08:05,VALID,1010.61,VALID,0,VALID,104,VALID,0,VALID,24.1014,VALID,26,VALID,0.654688,
2012-08-25, 02:09:05,VALID,1010.62,VALID,0,VALID,104,VALID,0,VALID,24.1227,VALID,26,VALID,0.187109,
2012-08-25, 02:10:05,VALID,1010.61,VALID,0,VALID,104,VALID,0.112112,VALID,24.1227,VALID,26,VALID,0,
2012-08-25, 02:11:05,VALID,1010.63,VALID,0,VALID,104,VALID,0,VALID,24.1227,VALID,26,VALID,0,
2012-08-25, 02:12:05,VALID,1010.59,VALID,0,VALID,104,VALID,0,VALID,24.1227,VALID,27,VALID,0.514844,
2012-08-25, 02:13:05,VALID,1010.57,VALID,0,VALID,104,VALID,0,VALID,24.1014,VALID,21,VALID,0.41875,
2012-08-25, 02:14:05,VALID,1010.54,VALID,0,VALID,104,VALID,0.112112,VALID,24.1209,VALID,21,VALID,0.0402344,
2012-08-25, 02:15:05,VALID,1010.51,VALID,0,VALID,104,VALID,0.112112,VALID,24.1209,VALID,21,VALID,0,
2012-08-25, 02:16:05,VALID,1010.51,VALID,0,VALID,104,VALID,0,VALID,24.1422,VALID,21,VALID,0,
2012-08-25, 02:17:05,VALID,1010.46,VALID,0,VALID,104,VALID,0,VALID,24.1422,VALID,21,VALID,0,
2012-08-25, 02:18:05,VALID,1010.46,VALID,0,VALID,104,VALID,0,VALID,24.1422,VALID,21,VALID,0.0570313,
2012-08-25, 02:19:05,VALID,1010.46,VALID,0,VALID,104,VALID,0,VALID,24.1617,VALID,21,VALID,0,
2012-08-25, 02:20:05,VALID,1010.44,VALID,0,VALID,104,VALID,0,VALID,24.1617,VALID,21,VALID,0,
2012-08-25, 02:21:05,VALID,1010.41,VALID,0,VALID,104,VALID,0,VALID,24.1617,VALID,21,VALID,0,
2012-08-25, 02:22:05,VALID,1010.39,VALID,0,VALID,104,VALID,0,VALID,24.1617,VALID,21,VALID,0,
2012-08-25, 02:23:05,VALID,1010.39,VALID,0,VALID,104,VALID,0,VALID,24.1617,VALID,21,VALID,0,
2012-08-25, 02:24:05,VALID,1010.4,VALID,0,VALID,104,VALID,0,VALID,24.1812,VALID,21,VALID,0,
2012-08-25, 02:25:05,VALID,1010.4,VALID,0,VALID,104,VALID,0,VALID,24.1812,VALID,21,VALID,0,
2012-08-25, 02:26:05,VALID,1010.39,VALID,0,VALID,104,VALID,0,VALID,24.1812,VALID,21,VALID,0,
2012-08-25, 02:27:05,VALID,1010.42,VALID,0,VALID,104,VALID,0,VALID,24.2025,VALID,21,VALID,0,
2012-08-25, 02:28:05,VALID,1010.38,VALID,0,VALID,104,VALID,0,VALID,24.1617,VALID,21,VALID,0,
2012-08-25, 02:29:05,VALID,1010.39,VALID,0,VALID,104,VALID,0,VALID,24.183,VALID,21,VALID,0,
2012-08-25, 02:30:05,VALID,1010.36,VALID,0,VALID,104,VALID,0,VALID,24.1617,VALID,21,VALID,0,
2012-08-25, 02:31:05,VALID,1010.37,VALID,0,VALID,104,VALID,0,VALID,24.1617,VALID,21,VALID,0,
2012-08-25, 02:32:05,VALID,1010.36,VALID,0,VALID,104,VALID,0,VALID,24.1635,VALID,21,VALID,0,
2012-08-25, 02:33:05,VALID,1010.35,VALID,0,VALID,104,VALID,0,VALID,24.1635,VALID,21,VALID,0,
2012-08-25, 02:34:05,VALID,1010.33,VALID,0,VALID,104,VALID,0,VALID,24.1422,VALID,21,VALID,0,
2012-08-25, 02:35:05,VALID,1010.35,VALID,0,VALID,104,VALID,0,VALID,24.1617,VALID,21,VALID,0,
2012-08-25, 02:36:05,VALID,1010.35,VALID,0,VALID,104,VALID,0,VALID,24.1422,VALID,21,VALID,0,
2012-08-25, 02:37:05,VALID,1010.37,VALID,0,VALID,104,VALID,0,VALID,24.1617,VALID,21,VALID,0,
2012-08-25, 02:38:05,VALID,1010.35,VALID,0,VALID,104,VALID,0,VALID,24.1422,VALID,21,VALID,0,
2012-08-25, 02:39:05,VALID,1010.33,VALID,0,VALID,104,VALID,0,VALID,24.1635,VALID,21,VALID,0,
2012-08-25, 02:40:05,VALID,1010.34,VALID,0,VALID,104,VALID,0,VALID,24.1422,VALID,21,VALID,0,
2012-08-25, 02:41:05,VALID,1010.36,VALID,0,VALID,104,VALID,0,VALID,24.1635,VALID,21,VALID,0,
2012-08-25, 02:42:05,VALID,1010.36,VALID,0,VALID,104,VALID,0,VALID,24.1617,VALID,21,VALID,0,
2012-08-25, 02:43:05,VALID,1010.36,VALID,0,VALID,104,VALID,0,VALID,24.1617,VALID,21,VALID,0,
2012-08-25, 02:44:05,VALID,1010.35,VALID,0,VALID,104,VALID,0,VALID,24.1617,VALID,21,VALID,0,
2012-08-25, 02:45:05,VALID,1010.36,VALID,0,VALID,104,VALID,0,VALID,24.1617,VALID,21,VALID,0,
2012-08-25, 02:46:05,VALID,1010.36,VALID,0,VALID,104,VALID,0,VALID,24.1812,VALID,21,VALID,0,
2012-08-25, 02:47:05,VALID,1010.36,VALID,0,VALID,104,VALID,0,VALID,24.1812,VALID,21,VALID,0,
2012-08-25, 02:48:05,VALID,1010.32,VALID,0,VALID,104,VALID,0,VALID,24.1812,VALID,21,VALID,0,
2012-08-25, 02:49:05,VALID,1010.34,VALID,0,VALID,104,VALID,0,VALID,24.1617,VALID,21,VALID,0,
2012-08-25, 02:50:05,VALID,1010.34,VALID,0,VALID,104,VALID,0,VALID,24.1812,VALID,21,VALID,0,
2012-08-25, 02:51:05,VALID,1010.34,VALID,0,VALID,104,VALID,0,VALID,24.1617,VALID,21,VALID,0,
2012-08-25, 02:52:05,VALID,1010.35,VALID,0,VALID,104,VALID,0,VALID,24.1617,VALID,21,VALID,0,
2012-08-25, 02:53:05,VALID,1010.35,VALID,0,VALID,104,VALID,0,VALID,24.1617,VALID,21,VALID,0,
2012-08-25, 02:54:05,VALID,1010.36,VALID,0,VALID,104,VALID,0,VALID,24.1617,VALID,21,VALID,0,
2012-08-25, 02:55:05,VALID,1010.38,VALID,0,VALID,104,VALID,0,VALID,24.1617,VALID,21,VALID,0,
2012-08-25, 02:56:05,VALID,1010.38,VALID,0,VALID,104,VALID,0,VALID,24.183,VALID,21,VALID,0,
2012-08-25, 02:57:05,VALID,1010.4,VALID,0,VALID,104,VALID,0,VALID,24.1812,VALID,21,VALID,0,
2012-08-25, 02:58:05,VALID,1010.42,VALID,0,VALID,104,VALID,0,VALID,24.1812,VALID,21,VALID,0,
2012-08-25, 02:59:05,VALID,1010.43,VALID,0,VALID,104,VALID,0,VALID,24.1812,VALID,21,VALID,0,
2012-08-25, 03:00:05,VALID,1010.41,VALID,0,VALID,104,VALID,0,VALID,24.2007,VALID,21,VALID,0,
2012-08-25, 03:01:05,VALID,1010.4,VALID,0,VALID,104,VALID,0,VALID,24.2025,VALID,21,VALID,0,
2012-08-25, 03:02:05,VALID,1010.38,VALID,0,VALID,104,VALID,0,VALID,24.2007,VALID,21,VALID,0,
2012-08-25, 03:03:05,VALID,1010.37,VALID,0,VALID,104,VALID,0,VALID,24.2007,VALID,21,VALID,0,
2012-08-25, 03:04:05,VALID,1010.38,VALID,0,VALID,104,VALID,0,VALID,24.2007,VALID,21,VALID,0,
2012-08-25, 03:05:05,VALID,1010.38,VALID,0,VALID,104,VALID,0,VALID,24.222,VALID,21,VALID,0,
2012-08-25, 03:06:05,VALID,1010.37,VALID,0,VALID,104,VALID,0,VALID,24.222,VALID,21,VALID,0,
2012-08-25, 03:07:05,VALID,1010.36,VALID,0,VALID,104,VALID,0,VALID,24.2415,VALID,21,VALID,0,
2012-08-25, 03:08:05,VALID,1010.39,VALID,0,VALID,104,VALID,0,VALID,24.261,VALID,21,VALID,0,
2012-08-25, 03:09:05,VALID,1010.38,VALID,0,VALID,104,VALID,0,VALID,24.2396,VALID,21,VALID,0,
2012-08-25, 03:10:05,VALID,1010.36,VALID,0,VALID,104,VALID,0,VALID,24.2786,VALID,21,VALID,0,
2012-08-25, 03:11:05,VALID,1010.4,VALID,0,VALID,104,VALID,0,VALID,24.2805,VALID,21,VALID,0,
2012-08-25, 03:12:05,VALID,1010.41,VALID,0,VALID,104,VALID,0,VALID,24.2786,VALID,21,VALID,0,
2012-08-25, 03:13:05,VALID,1010.4,VALID,0,VALID,104,VALID,0,VALID,24.2786,VALID,21,VALID,0,
2012-08-25, 03:14:05,VALID,1010.42,VALID,0,VALID,104,VALID,0,VALID,24.2981,VALID,21,VALID,0,
2012-08-25, 03:15:05,VALID,1010.42,VALID,0,VALID,104,VALID,0,VALID,24.2786,VALID,21,VALID,0,
2012-08-25, 03:16:05,VALID,1010.4,VALID,0,VALID,104,VALID,0,VALID,24.2786,VALID,21,VALID,0,
2012-08-25, 03:17:05,VALID,1010.37,VALID,0,VALID,104,VALID,0,VALID,24.2981,VALID,21,VALID,0,
2012-08-25, 03:18:05,VALID,1010.35,VALID,0,VALID,104,VALID,0.112112,VALID,24.2981,VALID,21,VALID,0,
2012-08-25, 03:19:05,VALID,1010.31,VALID,0,VALID,104,VALID,0,VALID,24.2981,VALID,21,VALID,0,
2012-08-25, 03:20:05,VALID,1010.31,VALID,0,VALID,104,VALID,0,VALID,24.2981,VALID,21,VALID,0,
2012-08-25, 03:21:05,VALID,1010.25,VALID,0,VALID,104,VALID,0,VALID,24.3176,VALID,21,VALID,0,
2012-08-25, 03:22:05,VALID,1010.28,VALID,0,VALID,104,VALID,0,VALID,24.3176,VALID,21,VALID,0,
2012-08-25, 03:23:05,VALID,1010.3,VALID,0,VALID,104,VALID,0,VALID,24.3371,VALID,21,VALID,0,
2012-08-25, 03:24:05,VALID,1010.27,VALID,0,VALID,104,VALID,0,VALID,24.3371,VALID,21,VALID,0,
2012-08-25, 03:25:05,VALID,1010.28,VALID,0,VALID,104,VALID,0,VALID,24.3371,VALID,21,VALID,0,
2012-08-25, 03:26:05,VALID,1010.29,VALID,0,VALID,104,VALID,0,VALID,24.3761,VALID,21,VALID,0,
2012-08-25, 03:27:05,VALID,1010.28,VALID,0,VALID,104,VALID,0,VALID,24.3566,VALID,21,VALID,0,
2012-08-25, 03:28:05,VALID,1010.28,VALID,0,VALID,104,VALID,0,VALID,24.3566,VALID,21,VALID,0,
2012-08-25, 03:29:05,VALID,1010.27,VALID,0,VALID,104,VALID,0,VALID,24.3761,VALID,21,VALID,0,
2012-08-25, 03:30:05,VALID,1010.28,VALID,0,VALID,104,VALID,0,VALID,24.3761,VALID,21,VALID,0,
2012-08-25, 03:31:05,VALID,1010.31,VALID,0,VALID,104,VALID,0,VALID,24.3956,VALID,21,VALID,0,
2012-08-25, 03:32:05,VALID,1010.26,VALID,0,VALID,104,VALID,0,VALID,24.3956,VALID,21,VALID,0,
2012-08-25, 03:33:05,VALID,1010.28,VALID,0,VALID,104,VALID,0,VALID,24.3956,VALID,21,VALID,0,
2012-08-25, 03:34:05,VALID,1010.27,VALID,0,VALID,104,VALID,0,VALID,24.415,VALID,21,VALID,0,
2012-08-25, 03:35:05,VALID,1010.21,VALID,0,VALID,104,VALID,0,VALID,24.415,VALID,21,VALID,0,
2012-08-25, 03:36:05,VALID,1010.2,VALID,0,VALID,104,VALID,0,VALID,24.415,VALID,21,VALID,0,
2012-08-25, 03:37:05,VALID,1010.17,VALID,0,VALID,104,VALID,0,VALID,24.415,VALID,21,VALID,0,
2012-08-25, 03:38:05,VALID,1010.14,VALID,0,VALID,104,VALID,0,VALID,24.4345,VALID,21,VALID,0,
2012-08-25, 03:39:05,VALID,1010.12,VALID,0,VALID,104,VALID,0,VALID,24.454,VALID,21,VALID,0,
2012-08-25, 03:40:05,VALID,1010.1,VALID,0,VALID,104,VALID,0,VALID,24.493,VALID,21,VALID,0,
2012-08-25, 03:41:05,VALID,1010.08,VALID,0,VALID,104,VALID,0,VALID,24.5125,VALID,21,VALID,0,
2012-08-25, 03:42:05,VALID,1010.08,VALID,0,VALID,104,VALID,0,VALID,24.532,VALID,21,VALID,0,
2012-08-25, 03:43:05,VALID,1010.08,VALID,0,VALID,104,VALID,0,VALID,24.5515,VALID,21,VALID,0,
2012-08-25, 03:44:05,VALID,1010.06,VALID,0,VALID,104,VALID,0,VALID,24.571,VALID,21,VALID,0,
2012-08-25, 03:45:05,VALID,1010.06,VALID,0,VALID,104,VALID,0,VALID,24.571,VALID,21,VALID,0,
2012-08-25, 03:46:05,VALID,1010.06,VALID,0,VALID,104,VALID,0,VALID,24.5905,VALID,21,VALID,0,
2012-08-25, 03:47:05,VALID,1010.05,VALID,0,VALID,104,VALID,0,VALID,24.5905,VALID,21,VALID,0,
2012-08-25, 03:48:05,VALID,1010.04,VALID,0,VALID,104,VALID,0,VALID,24.6099,VALID,21,VALID,0,
2012-08-25, 03:49:05,VALID,1010.06,VALID,0,VALID,104,VALID,0,VALID,24.6294,VALID,21,VALID,0,
2012-08-25, 03:50:05,VALID,1010.06,VALID,0,VALID,104,VALID,0,VALID,24.6294,VALID,21,VALID,0,
2012-08-25, 03:51:05,VALID,1010.06,VALID,0,VALID,104,VALID,0,VALID,24.6294,VALID,21,VALID,0,
2012-08-25, 03:52:05,VALID,1010.04,VALID,0,VALID,104,VALID,0,VALID,24.6081,VALID,21,VALID,0,
2012-08-25, 03:53:05,VALID,1010.03,VALID,0,VALID,104,VALID,0,VALID,24.6294,VALID,21,VALID,0,
2012-08-25, 03:54:05,VALID,1010.02,VALID,0,VALID,104,VALID,0,VALID,24.6294,VALID,21,VALID,0,
2012-08-25, 03:55:05,VALID,1010.02,VALID,0,VALID,104,VALID,0,VALID,24.6099,VALID,21,VALID,0,
2012-08-25, 03:56:05,VALID,1010.02,VALID,0,VALID,104,VALID,0,VALID,24.6294,VALID,21,VALID,0,
2012-08-25, 03:57:05,VALID,1010.01,VALID,0,VALID,104,VALID,0,VALID,24.6294,VALID,21,VALID,0,
2012-08-25, 03:58:05,VALID,1010,VALID,0,VALID,104,VALID,0,VALID,24.6294,VALID,21,VALID,0,
2012-08-25, 03:59:05,VALID,1009.99,VALID,0,VALID,104,VALID,0,VALID,24.6294,VALID,21,VALID,0,
2012-08-25, 04:00:05,VALID,1009.99,VALID,0,VALID,104,VALID,0,VALID,24.6294,VALID,21,VALID,0,
2012-08-25, 04:01:05,VALID,1010.01,VALID,0,VALID,104,VALID,0,VALID,24.6099,VALID,21,VALID,0,
2012-08-25, 04:02:05,VALID,1010.04,VALID,0,VALID,104,VALID,0,VALID,24.5905,VALID,21,VALID,0,
2012-08-25, 04:03:05,VALID,1010.02,VALID,0,VALID,104,VALID,0,VALID,24.571,VALID,21,VALID,0,
2012-08-25, 04:04:05,VALID,1010.05,VALID,0,VALID,104,VALID,0,VALID,24.5515,VALID,21,VALID,0,
2012-08-25, 04:05:05,VALID,1010.08,VALID,0,VALID,104,VALID,0,VALID,24.532,VALID,21,VALID,0,
2012-08-25, 04:06:05,VALID,1010.07,VALID,0,VALID,104,VALID,0,VALID,24.532,VALID,21,VALID,0,
2012-08-25, 04:07:05,VALID,1010.04,VALID,0,VALID,104,VALID,0,VALID,24.5125,VALID,21,VALID,0,
2012-08-25, 04:08:05,VALID,1010.08,VALID,0,VALID,104,VALID,0,VALID,24.493,VALID,21,VALID,0,